Regional Weather Roundup
Issued by NWS

Home | Current Version | Previous Version | Graphics & Text | Print | Product List | Glossary On
Versions: 1 2 3 4 5 6 7 8 9 10 11 12 13 14 15 16 17 18 19 20 21 22 23 24 25 26 27 28 29 30 31 32 33 34 35 36 37 38 39 40 41 42 43 44 45 46 47 48 49 50
000
ASUS43 KMPX 280810
RWRMN
WEATHER ROUNDUP FOR MINNESOTA
NATIONAL WEATHER SERVICE TWIN CITIES/CHANHASSEN MN
300 AM CDT TUE APR 28 2015


NOTE: "FAIR" INDICATES FEW OR NO CLOUDS BELOW 12,000 FEET WITH NO
SIGNIFICANT WEATHER AND/OR OBSTRUCTIONS TO VISIBILITY. N/A MEANS
CURRENT SKY AND/OR WEATHER CONDITIONS ARE NOT AVAILABLE.

MNZ060>063-068>070-280900-
   Twin Cities Metro

CITY           SKY/WX    TMP DP  RH WIND       PRES   REMARKS
TWIN CITIES    MOCLDY    46  38  73 SE6       30.15S
ST PAUL        CLEAR     44  35  70 CALM      30.16S
CRYSTAL        PTCLDY    43  35  73 CALM      30.13F
BLAINE         PTCLDY    43  34  70 CALM      30.14F
LAKEVILLE      PTCLDY    39  34  81 CALM      30.15S
EDEN PRAIRIE   PTCLDY    47  29  49 SW3       30.14S
SOUTH ST PAUL  PTCLDY    45  32  61 CALM      30.15S
LAKE ELMO      FAIR      37  32  81 CALM      30.16S
$$
MNZ001>005-007-008-013>017-022>024-027-028-280900-
   Northwest Minnesota

CITY           SKY/WX    TMP DP  RH WIND       PRES   REMARKS
BEMIDJI        DRIZZLE   48  43  84 N7        30.19S
HALLOCK        FOG       37  37 100 CALM      30.26S VSB<1/4
ROSEAU         CLOUDY    45  41  87 NW3       30.25R
WARROAD        CLOUDY    45  39  81 NW6       30.25R
THIEF RVR FALL CLOUDY    45  43  93 N9        30.25R
CROOKSTON      CLOUDY    43  43 100 N7        30.26S
FOSSTON        RAIN      45  43  93 NW7       30.24R
DETROIT LAKES  RAIN      46  43  87 N8        30.22S
MOORHEAD       LGT RAIN  46  45  93 N13       30.25R
PARK RAPIDS    CLOUDY    52  42  69 NW13      30.17R
MAHNOMEN       DRIZZLE   45  43  92 N9        30.23R
$$
MNZ006-009>011-018-025>026-280900-
   North Central Minnesota

CITY           SKY/WX    TMP DP  RH WIND       PRES   REMARKS
BAUDETTE       LGT RAIN  43  41  93 NW8       30.22S
FLAG ISLAND    PTCLDY    43  41  93 NW14      30.23R
INTL FALLS     LGT RAIN  49  44  83 N13       30.17S
WASKISH        DRIZZLE   46  43  87 CALM      30.20F
BIG FORK       CLOUDY    48  41  76 NW3       30.17S
LONGVILLE      CLOUDY    52  43  71 NW3       30.15S
GRAND RAPIDS   PTCLDY    43  28  56 N5        30.14S
CRANE LAKE     CLOUDY    37  34  87 CALM      30.16R
ORR            CLOUDY    46  34  61 CALM      30.13S
COOK           MOCLDY    43  30  61 CALM      30.15R
WALKER         CLOUDY    51  42  72 CALM      30.17R
$$
MNZ012-019>021-037-280900-
   Northeast Minnesota

CITY           SKY/WX    TMP DP  RH WIND       PRES   REMARKS
DULUTH         CLEAR     44  27  51 CALM      30.14S
ELY            PTCLDY    32  28  86 CALM      30.14S
HIBBING        PTCLDY    38  29  70 CALM      30.13F
EVELETH        PTCLDY    34  30  86 CALM      30.15S
DULUTH HARBOR  CLEAR     39  36  87 CALM      30.16S
TWO HARBORS    FAIR      34  28  80 CALM      30.13S
SILVER BAY     PTCLDY    30  27  86 CALM      30.14S
GRAND MARAIS     N/A     35  28  75 CALM      30.14S
G MARAIS ARPRT CLEAR     28  23  80 W3        30.14S
$$
MNZ029>031-032-039>041-046>048-054>057-064-280900-
   West Central Minnesota

CITY           SKY/WX    TMP DP  RH WIND       PRES   REMARKS
FERGUS FALLS   CLOUDY    48  39  71 NW13      30.22R
WHEATON        CLOUDY    48  39  71 NW13G18   30.23S
MORRIS         CLOUDY    50  41  71 NW13      30.18S
ALEXANDRIA     CLOUDY    50  41  71 NW8       30.18S
ELBOW LAKE     CLOUDY    50  42  73 W8        30.20S
WADENA         CLOUDY    50  39  66 NW8       30.17S
GLENWOOD       PTCLDY    46  34  61 NW6       30.17S
APPLETON       PTCLDY    50  41  71 NW13      30.19S
BENSON         PTCLDY    43  37  81 N9        30.18S
ORTONVILLE     MOCLDY    52  41  66 N14       30.20S
MADISON        PTCLDY    46  39  76 NW6       30.20S
WILLMAR        FAIR      46  28  49 W8        30.18S
$$
MNZ033>034-036-042>043-049>051-058-059-280900-
   Central Minnesota

CITY           SKY/WX    TMP DP  RH WIND       PRES   REMARKS
ST CLOUD       CLEAR     41  32  70 CALM      30.13F
SAUK CENTRE    FAIR      40  30  68 W3        30.16S
PAYNESVILLE    CLEAR     40  30  68 S6        30.16S
AITKIN         CLEAR     36  27  69 CALM      30.12S
PINE RIVER     CLOUDY    52  43  71 N7        30.17F
BRAINERD       PTCLDY    45  35  68 N3        30.14S
STAPLES        CLOUDY    45  34  65 NW3       30.16R
LONG PRAIRIE   FAIR      48  32  53 NW10      30.16S
LITTLE FALLS   CLEAR     39  32  75 CALM      30.14S
LITCHFIELD     CLEAR     50  28  43 W3        30.16S
BUFFALO        CLEAR     41  32  70 CALM      30.15S
MAPLE LAKE     CLEAR     42  33  68 W3        30.14F
$$
MNZ037-044-045-052-053-280900-
   East Central Minnesota

CITY           SKY/WX    TMP DP  RH WIND       PRES   REMARKS
PRINCETON      CLEAR     37  34  87 CALM      30.13F
MORA           CLEAR     34  30  86 CALM      30.15F
CAMBRIDGE      PTCLDY    43  30  61 CALM      30.13S
RUSH CITY      PTCLDY    38  30  72 CALM      30.14S
MOOSE LAKE     CLEAR     34  32  93 CALM      30.13S
HINCKLEY       FAIR      34  28  80 CALM      30.14S
CLOQUET        CLEAR     36  28  75 CALM      30.14S
MCGREGOR       CLEAR     36  28  75 CALM      30.14S
$$
MNZ071>073-080-081-089-090-097-098-280900-
   Southwest Minnesota

CITY           SKY/WX    TMP DP  RH WIND       PRES   REMARKS
MONTEVIDEO     CLEAR     46  37  71 N8        30.20S
GRANITE FALLS  CLEAR     44  35  68 W9        30.20S
CANBY          CLEAR     46  40  79 NW7       30.22S
MARSHALL       CLEAR     45  36  70 NW12      30.20R
REDWOOD FALLS  CLEAR     45  27  49 W10       30.17S
OLIVIA         CLEAR     37  23  56 W6        30.16S
PIPESTONE      CLEAR     46  27  46 N1        30.19S
WINDOM         PTCLDY    41  27  56 CALM      30.18F
WORTHINGTON    CLEAR     45  21  39 W5        30.19S
JACKSON        PTCLDY    41  28  60 CALM      30.19S
TRACY          CLEAR     47  32  57 NW9       30.21R
SLAYTON        CLEAR     39  26  61 CALM      30.20S
$$
MNZ065>067-074>077-082>085-091>093-280900-
   South Central Minnesota

CITY           SKY/WX    TMP DP  RH WIND       PRES   REMARKS
NEW ULM        PTCLDY    41  21  45 W3        30.17R
ST JAMES       PTCLDY    43  27  52 SW3       30.18S
FAIRMONT       PTCLDY    45  27  49 W7        30.16F
GLENCOE        PTCLDY    42  29  59 CALM      30.14F
FARIBAULT      PTCLDY    39  34  81 CALM      30.16S
OWATONNA       PTCLDY    37  28  70 CALM      30.16S
WASECA         PTCLDY    39  30  70 W3        30.18S
ALBERT LEA     CLEAR     43  32  65 CALM      30.16S
$$
MNZ078>079-086>088-094>096-280900-
   Southeast Minnesota

CITY           SKY/WX    TMP DP  RH WIND       PRES   REMARKS
ROCHESTER      CLEAR     46  28  49 NW6       30.16S
RED WING       CLEAR     39  30  70 CALM      30.15S
STANTON        PTCLDY    37  28  71 S3        30.15S
DODGE CENTER   PTCLDY    46  28  49 CALM      30.16S
WINONA         CLEAR     41  36  81 CALM      30.15S
AUSTIN         CLEAR     39  34  81 CALM      30.16R
PRESTON        FAIR      49  28  44 N3        30.15S
$$
ABBREVIATIONS USED IN REMARKS
   TC - TEMPERATURES IN CELSIUS
  WCI - WIND CHILL INDEX
   HX - HEAT INDEX
  VSB - VISIBILITY
$$


USA.gov is the U.S. government's official web portal to all federal, state and local government web resources and services.